TimeMST,TemperatureF,Dew PointF,Humidity,Sea Level PressureIn,VisibilityMPH,Wind Direction,Wind SpeedMPH,Gust SpeedMPH,PrecipitationIn,Events,Conditions,WindDirDegrees,DateUTC
12:15 AM,31.6,15.6,52,29.94,10.0,West,4.6,-,N/A,,Clear,270,2013-02-17 07:15:00
12:35 AM,32.4,15.8,51,29.94,10.0,Calm,Calm,-,N/A,,Clear,0,2013-02-17 07:35:00
12:55 AM,32.0,15.6,51,29.94,10.0,WSW,3.5,-,N/A,,Clear,240,2013-02-17 07:55:00
1:15 AM,30.2,15.4,54,29.93,10.0,WSW,4.6,-,N/A,,Clear,240,2013-02-17 08:15:00
1:35 AM,26.4,14.0,59,29.92,10.0,SW,8.1,-,N/A,,Clear,230,2013-02-17 08:35:00
1:55 AM,25.5,13.1,59,29.92,10.0,WSW,8.1,-,N/A,,Clear,240,2013-02-17 08:55:00
2:15 AM,23.7,12.9,63,29.90,10.0,WSW,5.8,-,N/A,,Clear,240,2013-02-17 09:15:00
2:35 AM,23.0,12.9,65,29.89,10.0,WSW,8.1,-,N/A,,Clear,240,2013-02-17 09:35:00
2:55 AM,22.1,12.6,67,29.89,10.0,WSW,8.1,-,N/A,,Clear,250,2013-02-17 09:55:00
3:15 AM,25.2,13.1,60,29.88,10.0,West,4.6,-,N/A,,Clear,270,2013-02-17 10:15:00
3:35 AM,23.9,13.1,63,29.86,10.0,West,5.8,-,N/A,,Clear,260,2013-02-17 10:35:00
3:55 AM,23.0,12.7,65,29.85,10.0,West,5.8,-,N/A,,Clear,260,2013-02-17 10:55:00
4:15 AM,24.8,13.1,61,29.85,10.0,West,5.8,-,N/A,,Clear,260,2013-02-17 11:15:00
4:35 AM,25.7,13.1,59,29.84,10.0,West,5.8,-,N/A,,Clear,260,2013-02-17 11:35:00
4:55 AM,25.7,12.9,58,29.83,10.0,West,8.1,-,N/A,,Clear,270,2013-02-17 11:55:00
5:15 AM,25.3,13.1,60,29.83,10.0,West,9.2,-,N/A,,Clear,260,2013-02-17 12:15:00
5:35 AM,25.9,13.1,58,29.82,10.0,West,8.1,-,N/A,,Clear,260,2013-02-17 12:35:00
5:55 AM,28.2,12.6,52,29.82,10.0,WSW,6.9,-,N/A,,Clear,250,2013-02-17 12:55:00
6:15 AM,26.6,12.6,55,29.80,10.0,WSW,6.9,-,N/A,,Clear,250,2013-02-17 13:15:00
6:35 AM,27.1,12.7,55,29.80,10.0,West,9.2,-,N/A,,Clear,270,2013-02-17 13:35:00
6:55 AM,28.2,12.6,52,29.80,10.0,WSW,8.1,-,N/A,,Clear,250,2013-02-17 13:55:00
7:15 AM,28.4,12.7,52,29.79,10.0,West,8.1,-,N/A,,Clear,260,2013-02-17 14:15:00
7:35 AM,28.8,12.7,51,29.79,10.0,WSW,8.1,-,N/A,,Clear,250,2013-02-17 14:35:00
7:55 AM,30.0,12.7,49,29.78,10.0,WSW,6.9,-,N/A,,Clear,250,2013-02-17 14:55:00
8:15 AM,30.4,13.1,49,29.78,10.0,West,3.5,-,N/A,,Clear,260,2013-02-17 15:15:00
8:35 AM,31.8,13.1,46,29.77,10.0,West,4.6,-,N/A,,Clear,260,2013-02-17 15:35:00
8:55 AM,32.2,14.9,49,29.77,10.0,SW,4.6,-,N/A,,Clear,220,2013-02-17 15:55:00
9:15 AM,33.1,15.1,48,29.76,10.0,SSW,5.8,-,N/A,,Clear,200,2013-02-17 16:15:00
9:35 AM,34.9,13.5,41,29.76,10.0,WSW,5.8,-,N/A,,Clear,250,2013-02-17 16:35:00
9:55 AM,37.0,12.6,37,29.74,10.0,Calm,Calm,-,N/A,,Clear,0,2013-02-17 16:55:00
10:15 AM,39.9,10.9,31,29.73,10.0,SSW,3.5,-,N/A,,Clear,200,2013-02-17 17:15:00
10:35 AM,42.1,11.5,29,29.72,10.0,SSW,4.6,-,N/A,,Clear,200,2013-02-17 17:35:00
11:15 AM,46.6,12.0,25,29.69,10.0,SSE,4.6,-,N/A,,Clear,150,2013-02-17 18:15:00
11:35 AM,50.5,12.2,22,29.68,10.0,East,3.5,-,N/A,,Clear,90,2013-02-17 18:35:00
11:55 AM,54.7,10.2,17,29.66,10.0,SE,3.5,-,N/A,,Clear,130,2013-02-17 18:55:00
12:15 PM,55.0,7.7,15,29.64,10.0,Calm,Calm,-,N/A,,Clear,0,2013-02-17 19:15:00
12:35 PM,56.3,9.5,16,29.63,10.0,Calm,Calm,-,N/A,,Clear,0,2013-02-17 19:35:00
12:55 PM,58.3,7.3,13,29.61,10.0,Calm,Calm,-,N/A,,Clear,0,2013-02-17 19:55:00
1:15 PM,59.9,7.9,13,29.60,10.0,NE,4.6,-,N/A,,Clear,50,2013-02-17 20:15:00
1:35 PM,60.6,3.9,10,29.58,10.0,Calm,Calm,-,N/A,,Clear,0,2013-02-17 20:35:00
1:55 PM,61.7,2.3,9,29.57,10.0,Calm,Calm,-,N/A,,Clear,0,2013-02-17 20:55:00
2:15 PM,62.2,0.5,8,29.55,10.0,Calm,Calm,-,N/A,,Clear,0,2013-02-17 21:15:00
2:35 PM,63.9,-1.1,7,29.55,10.0,Calm,Calm,-,N/A,,Clear,0,2013-02-17 21:35:00
2:55 PM,64.0,-0.9,7,29.55,10.0,NW,11.5,-,N/A,,Clear,310,2013-02-17 21:55:00
3:15 PM,63.7,-2.0,7,29.54,10.0,WSW,6.9,-,N/A,,Clear,240,2013-02-17 22:15:00
3:35 PM,61.3,-0.6,8,29.54,10.0,NW,8.1,-,N/A,,Clear,320,2013-02-17 22:35:00
3:55 PM,59.7,-0.0,9,29.54,10.0,NW,6.9,-,N/A,,Clear,320,2013-02-17 22:55:00
4:15 PM,57.2,0.3,10,29.54,10.0,NNW,11.5,-,N/A,,Clear,340,2013-02-17 23:15:00
4:35 PM,54.1,-2.0,10,29.54,10.0,North,12.7,-,N/A,,Clear,350,2013-02-17 23:35:00
4:55 PM,52.9,-2.2,10,29.55,10.0,North,11.5,-,N/A,,Clear,360,2013-02-17 23:55:00
5:15 PM,51.3,-1.8,11,29.55,10.0,NNE,11.5,-,N/A,,Clear,20,2013-02-18 00:15:00
5:35 PM,50.9,0.9,13,29.57,10.0,North,20.7,-,N/A,,Clear,360,2013-02-18 00:35:00
5:55 PM,49.1,10.8,21,29.59,10.0,North,23.0,28.8,N/A,,Clear,360,2013-02-18 00:55:00
6:15 PM,46.9,14.4,27,29.60,10.0,North,25.3,40.3,N/A,,Clear,350,2013-02-18 01:15:00
6:35 PM,45.0,15.8,31,29.61,10.0,North,23.0,34.5,N/A,,Clear,350,2013-02-18 01:35:00
6:55 PM,44.2,16.5,33,29.63,10.0,North,29.9,39.1,N/A,,Clear,350,2013-02-18 01:55:00
7:15 PM,43.2,16.2,34,29.64,10.0,North,28.8,38.0,N/A,,Clear,350,2013-02-18 02:15:00
7:35 PM,41.9,13.5,32,29.64,10.0,North,32.2,38.0,N/A,,Clear,350,2013-02-18 02:35:00
7:55 PM,40.6,12.9,32,29.65,10.0,North,28.8,35.7,N/A,,Clear,350,2013-02-18 02:55:00
8:15 PM,39.6,19.0,44,29.66,10.0,North,26.5,38.0,N/A,,Clear,350,2013-02-18 03:15:00
8:35 PM,38.1,23.7,56,29.66,10.0,North,28.8,36.8,N/A,,Clear,350,2013-02-18 03:35:00
8:55 PM,36.5,23.9,60,29.67,10.0,North,31.1,35.7,N/A,,Clear,350,2013-02-18 03:55:00
9:15 PM,35.6,23.7,62,29.68,10.0,North,31.1,40.3,N/A,,Clear,350,2013-02-18 04:15:00
9:35 PM,34.3,23.9,66,29.70,10.0,North,25.3,35.7,N/A,,Clear,350,2013-02-18 04:35:00
9:55 PM,33.1,23.5,68,29.71,10.0,North,24.2,31.1,N/A,,Clear,350,2013-02-18 04:55:00
10:15 PM,32.4,22.1,66,29.72,10.0,North,21.9,28.8,N/A,,Clear,350,2013-02-18 05:15:00
10:35 PM,32.0,21.4,65,29.74,10.0,North,20.7,29.9,N/A,,Clear,350,2013-02-18 05:35:00
10:55 PM,31.3,20.8,65,29.76,10.0,North,20.7,28.8,N/A,,Clear,350,2013-02-18 05:55:00
11:15 PM,30.4,20.8,68,29.76,10.0,North,13.8,23.0,N/A,,Clear,350,2013-02-18 06:15:00
11:55 PM,28.8,19.9,70,29.78,10.0,NNW,12.7,-,N/A,,Clear,340,2013-02-18 06:55:00